Location: Unspecified
(0.0000°N, 0.0000°E)
Time: 19:25:14
(UTC+00:00)

Vanguard 1 Rocket - Pass Details

Date: 11 December 2017
Orbit: 656 x 4222 km, 34.3° (Epoch: 18 January)

Event Time Altitude Azimuth Distance (km) Brightness Sun altitude
Rises 22:46:52 0° 318° (NW) 7,387 12.0 -61.8°
Enters shadow 22:51:24 - 324° (NW) 6,807 11.7 -62.4°
Exits shadow 23:33:56 16° 94° (E) 6,137 11.4 -66.4°
Drops below altitude 10° 23:36:52 10° 99° (E) 6,493 11.7 -66.6°
Sets 23:41:31 0° 105° (ESE) 7,133 12.0 -66.7°
